Anniston, AL

11:59 AM CST on November 22, 2019 (GMT -0600)
Anniston Metro

Weather History for KANB - September, 2019

Change the Weather History Date:

Tuesday, September 17, 2019

  Actual Average Record
Temperature  
Mean Temperature 83 °F 73 °F  
Max Temperature 99 °F 84 °F 99 °F (2019)
Min Temperature 66 °F 63 °F 47 °F (1999)
Degree Days  
Heating Degree Days 0    
Month to date heating degree days 0  
Since 1 July heating degree days 0  
Cooling Degree Days 17    
Growing Degree Days 32 (Base 50)    
Moisture  
Dew Point 64 °F    
Average Humidity 61    
Maximum Humidity 93    
Minimum Humidity 29    
Precipitation  
Precipitation 0.00 in 0.10 in 2.69 in (1960)
Month to date precipitation 0.42 1.69  
Year to date precipitation 39.59 36.61  
Sea Level Pressure  
Sea Level Pressure 29.97 in    
Wind  
Wind Speed 3 mph (North)    
Max Wind Speed 13 mph    
Max Gust Speed 17 mph    
Visibility 10 miles    
Events      
T = Trace of Precipitation, MM = Missing Value Source: NWS Daily Summary

Daily Weather History Graph

Daily Weather History Graph

Search for Another Location

Airport or City:

Astronomy

Sep. 17, 2019 Rise Set
Actual Time 6:28 AM CDT 6:47 PM CDT
Civil Twilight 6:03 AM CDT 7:12 PM CDT
Nautical Twilight 5:33 AM CDT 7:41 PM CDT
Astronomical Twilight 5:04 AM CDT 8:10 PM CDT
Moon 8:59 PM CDT (9/17) 9:24 AM CDT (9/17)
Length of Visible Light 13h 09m
Length of Day
12h 19m
Waning Gibbous, 89% of the Moon is Illuminated
Sep 17
Waning Gibbous
Sep 21
Last Quarter
Sep 28
New
Oct 5
First Quarter
Oct 13
Full

Hourly Weather History & Observations

Time (CDT) Temp. Heat Index Dew Point Humidity Pressure Visibility Wind Dir Wind Speed Gust Speed Precip Events Conditions
12:53 AM 71.1 °F - 66.0 °F 84% 29.98 in 10.0 mi Calm Calm - N/A   Clear
1:53 AM 71.1 °F - 66.0 °F 84% 29.97 in 10.0 mi ENE 3.5 mph - N/A   Clear
2:53 AM 71.1 °F - 64.9 °F 81% 29.96 in 10.0 mi ENE 3.5 mph - N/A   Clear
3:53 AM 69.1 °F - 64.9 °F 87% 29.96 in 10.0 mi East 3.5 mph - N/A   Clear
4:53 AM 68.0 °F - 64.9 °F 90% 29.97 in 10.0 mi Calm Calm - N/A   Clear
5:53 AM 66.9 °F - 64.0 °F 90% 29.99 in 10.0 mi Calm Calm - N/A   Clear
6:53 AM 66.0 °F - 64.0 °F 93% 30.01 in 10.0 mi Calm Calm - N/A   Clear
7:53 AM 71.1 °F - 64.9 °F 81% 30.03 in 10.0 mi ESE 3.5 mph - N/A   Clear
8:53 AM 77.0 °F - 66.0 °F 69% 30.03 in 10.0 mi Calm Calm - N/A   Clear
9:53 AM 84.9 °F 87.6 °F 66.9 °F 55% 30.03 in 10.0 mi Calm Calm - N/A   Clear
10:53 AM 91.0 °F 93.0 °F 64.9 °F 42% 30.02 in 10.0 mi ESE 3.5 mph - N/A   Clear
11:53 AM 95.0 °F 96.0 °F 63.0 °F 34% 30.00 in 10.0 mi NNE 8.1 mph - N/A   Clear
12:53 PM 95.0 °F 96.0 °F 63.0 °F 34% 29.98 in 10.0 mi WNW 6.9 mph - N/A   Clear
1:53 PM 97.0 °F 98.3 °F 63.0 °F 32% 29.95 in 10.0 mi NW 5.8 mph - N/A   Clear
2:53 PM 98.1 °F 98.6 °F 61.0 °F 29% 29.93 in 10.0 mi NW 5.8 mph - N/A   Scattered Clouds
3:53 PM 98.1 °F 98.6 °F 61.0 °F 29% 29.91 in 10.0 mi NW 10.4 mph - N/A   Scattered Clouds
4:53 PM 96.1 °F 96.4 °F 61.0 °F 31% 29.91 in 10.0 mi WNW 5.8 mph - N/A   Clear
5:53 PM 95.0 °F 96.0 °F 63.0 °F 34% 29.91 in 10.0 mi NNW 6.9 mph - N/A   Clear
6:53 PM 91.9 °F 91.5 °F 60.1 °F 34% 29.91 in 10.0 mi NW 5.8 mph - N/A   Clear
7:53 PM 79.0 °F - 64.9 °F 62% 29.94 in 10.0 mi Calm Calm - N/A   Clear
8:53 PM 78.1 °F - 66.9 °F 68% 29.95 in 10.0 mi Calm Calm - N/A   Clear
9:53 PM 75.9 °F - 66.9 °F 74% 29.95 in 10.0 mi Calm Calm - N/A   Clear
11:53 PM 73.9 °F - 66.9 °F 79% 29.95 in 10.0 mi Calm Calm - N/A   Clear